[[{"header":{"parameterUnit":"m.s-1","parameterCategory":1,"la1":30.2991,"la2":30.254,"lo1":-89.0895,"lo2":-89.0444,"dy":0.0017,"dx":0.0017,"nx":28,"ny":28,"refTime":"2026-02-09T03:00:00:Z","depth":0,"parameterNumber":2,"parameterNumberName":"U-component_of_WINDS"},"data":[0,0,0,0,0,0,0,0,0,0,0,0,0,0,0,0,0,0,0,0,0,0,0,0,0,0,0,0,0,0,0,0,0,0,0,0,0,0,0,0,0,0,0,0,0,0,0,0,0,0,0,0,0,0,0,0,0,0,-0.2094,-0.2093,0,-0.1968,-0.1967,-0.1966,-0.188,-0.188,-0.1879,-0.1878,-0.1746,-0.1743,-0.174,0,0,0,0,0,0,0,0,0,0,0,0,0,-0.2254,-0.2252,-0.2094,-0.2092,-0.2091,-0.1969,-0.1967,-0.1965,-0.188,-0.188,-0.1879,-0.1878,-0.1747,-0.1743,-0.174,0,0,0,0,0,0,0,0,0,0,0,0,0,-0.2162,-0.2251,-0.2094,-0.2034,-0.2027,-0.1969,-0.1967,-0.1965,-0.1881,-0.188,-0.1879,-0.1878,-0.1748,-0.1744,-0.1739,-0.173,0,0,-0.1725,-0.1724,0,0,0,0,0,0,0,0,-0.2168,-0.2156,-0.2044,-0.2038,-0.203,-0.1939,-0.1975,-0.1886,-0.1881,-0.1936,-0.1878,-0.1877,-0.1811,-0.1801,-0.1779,-0.1724,-0.1718,-0.1725,-0.1722,-0.172,-0.1719,0,0,0,0,0,0,0,-0.2174,-0.2161,-0.2044,-0.2043,-0.2034,-0.2011,-0.1997,-0.1957,-0.188,-0.1931,-0.1925,-0.1911,-0.1806,-0.1784,-0.1775,-0.1716,-0.1725,-0.1721,-0.1719,-0.1717,-0.1643,-0.1643,0,0,0,0,0,0,-0.2191,-0.2167,-0.2048,-0.204,-0.2098,-0.2009,-0.1993,-0.1969,-0.188,-0.1866,-0.1912,-0.1908,-0.1792,-0.1781,-0.177,-0.1751,-0.1721,-0.1716,-0.1714,-0.1642,-0.1643,-0.1644,0,0,0,0,0,0,-0.2194,-0.2181,-0.2053,-0.2102,-0.2084,-0.2007,-0.1981,-0.1967,-0.1944,-0.1866,-0.1851,-0.1904,-0.1791,-0.1777,-0.174,-0.1746,-0.1714,-0.171,-0.1641,-0.1642,-0.1643,-0.1715,0,0,0,0,0,0,-0.2199,-0.2183,-0.218,-0.2103,-0.2082,-0.2027,-0.1981,-0.1966,-0.1938,-0.1931,-0.1854,-0.184,-0.1789,-0.1747,-0.1736,-0.1739,-0.1707,-0.164,-0.1642,-0.1643,-0.1712,-0.1719,-0.1724,0,0,0,0,0,-0.2205,-0.2205,-0.218,-0.2167,-0.2077,-0.2028,-0.2016,-0.1958,-0.1939,-0.1934,-0.1883,-0.1842,-0.1747,-0.1744,-0.173,-0.1733,-0.164,-0.1641,-0.1643,-0.1709,-0.1717,-0.1724,0,0,0,0,0,0,-0.2285,-0.2194,-0.2166,-0.2141,-0.2093,-0.2014,-0.2006,-0.1969,-0.1924,-0.192,-0.1848,-0.1832,-0.1802,-0.1763,-0.1762,-0.1717,-0.1688,-0.1687,-0.1744,-0.1751,-0.1757,-0.1766,-0.1703,0,0,0,0,0,-0.2299,-0.2269,-0.219,-0.2176,-0.2153,-0.2084,-0.206,-0.202,-0.1967,-0.1946,-0.1892,-0.1841,-0.1798,-0.1772,-0.173,-0.1706,-0.1686,-0.17,-0.1707,-0.1712,-0.1712,-0.1693,-0.1698,-0.1649,-0.1649,-0.1649,0,0,-0.2329,-0.2276,-0.2261,-0.219,-0.2148,-0.2116,-0.2067,-0.2036,-0.201,-0.194,-0.1902,-0.1861,-0.1798,-0.1768,-0.1752,-0.1735,-0.1721,-0.1714,-0.1719,-0.1715,-0.1696,-0.17,-0.1705,-0.165,-0.165,-0.1649,0,0,-0.2367,-0.2324,-0.2306,-0.2265,-0.2202,-0.2156,-0.2151,-0.2077,-0.2047,-0.2008,-0.1954,-0.1922,-0.1852,-0.1809,-0.1778,-0.1797,-0.1757,-0.1784,-0.1816,-0.18,-0.1803,-0.1806,-0.1811,-0.1814,-0.1784,-0.1785,-0.1785,0,-0.2411,-0.2362,-0.2301,-0.2272,-0.2242,-0.2177,-0.2157,-0.2119,-0.2046,-0.2025,-0.2008,-0.1917,-0.187,-0.1827,-0.1832,-0.181,-0.18,-0.1793,-0.1808,-0.1811,-0.1812,-0.1816,-0.1818,-0.1788,-0.1788,-0.1788,-0.1787,0,-0.2419,-0.2385,-0.2378,-0.2309,-0.2277,-0.2253,-0.2186,-0.2161,-0.2123,-0.2078,-0.2037,-0.1979,-0.1922,-0.1909,-0.1871,-0.1859,-0.1851,-0.1822,-0.1791,-0.1822,-0.1824,-0.1825,-0.1794,-0.1792,-0.1791,-0.179,0,0,-0.2504,-0.24,-0.2399,-0.2365,-0.229,-0.2262,-0.2233,-0.2178,-0.2157,-0.2107,-0.208,-0.2021,-0.1993,-0.1958,-0.1914,-0.19,-0.1915,-0.1872,-0.1869,-0.188,-0.1896,-0.1918,-0.1921,-0.1889,-0.1889,-0.1889,-0.1901,0,-0.2529,-0.2476,-0.2419,-0.2385,-0.2352,-0.2289,-0.2263,-0.2213,-0.2169,-0.2133,-0.2083,-0.2042,-0.201,-0.1988,-0.197,-0.1917,-0.1917,-0.1916,-0.186,-0.1859,-0.1877,-0.1922,-0.1945,-0.1959,-0.1901,-0.1901,-0.1901,0,-0.2552,-0.2506,-0.2469,-0.2394,-0.2377,-0.2356,-0.23,-0.2266,-0.2207,-0.2176,-0.2136,-0.2089,-0.2053,-0.2027,-0.1974,-0.1975,-0.1948,-0.1918,-0.1917,-0.1909,-0.1882,-0.1914,-0.1963,-0.1965,-0.1902,-0.1902,-0.1902,0,-0.2616,-0.2544,-0.2512,-0.2485,-0.2398,-0.2384,-0.2346,-0.2286,-0.2256,-0.2206,-0.2185,-0.2132,-0.2102,-0.2061,-0.2,-0.1987,-0.1953,-0.1922,-0.1924,-0.1926,-0.192,-0.1921,-0.1964,-0.1905,-0.1905,-0.1905,-0.1905,0,-0.265,-0.2629,-0.2539,-0.2519,-0.2493,-0.2427,-0.2402,-0.2358,-0.2305,-0.2274,-0.2215,-0.2187,-0.2109,-0.207,-0.2022,-0.1985,-0.1972,-0.1944,-0.1931,-0.1949,-0.1952,-0.193,-0.1927,-0.1905,-0.1905,-0.1905,-0.1905,0,-0.2717,-0.2657,-0.2617,-0.2537,-0.2516,-0.25,-0.243,-0.2407,-0.2359,-0.232,-0.2307,-0.2232,-0.2183,-0.2118,-0.2049,-0.2017,-0.1985,-0.1965,-0.2005,-0.1998,-0.2002,-0.2002,-0.2032,-0.2032,-0.1975,-0.1976,-0.1976,0,-0.2743,-0.2725,-0.2643,-0.2618,-0.2582,-0.2544,-0.2512,-0.2445,-0.2414,-0.2344,-0.2329,-0.2276,-0.223,-0.2154,-0.2092,-0.2038,-0.2016,-0.203,-0.2008,-0.2025,-0.2014,-0.2016,-0.2012,-0.2036,-0.2037,-0.2038,-0.2038,0,-0.2793,-0.2763,-0.2721,-0.2668,-0.2632,-0.2586,-0.2538,-0.2521,-0.2443,-0.2411,-0.2361,-0.2325,-0.2254,-0.2201,-0.2139,-0.2097,-0.2054,-0.2046,-0.2043,-0.206,-0.2083,-0.2069,-0.2019,-0.2045,-0.2045,-0.2044,-0.2044,-0.2044,-0.2839,-0.2819,-0.2758,-0.2712,-0.2668,-0.2624,-0.2597,-0.2546,-0.2503,-0.2441,-0.2403,-0.2354,-0.2291,-0.2203,-0.2164,-0.2123,-0.2106,-0.2103,-0.2101,-0.2101,-0.2106,-0.2091,-0.2111,-0.2111,-0.2111,-0.211,-0.211,0,-0.2885,-0.2842,-0.28,-0.2734,-0.2697,-0.266,-0.2604,-0.2575,-0.2533,-0.2479,-0.2435,-0.2375,-0.2323,-0.2256,-0.2199,-0.2178,-0.2157,-0.2165,-0.2166,-0.2156,-0.2125,-0.2133,-0.2184,-0.2184,-0.2184,-0.2184,-0.2184,-0.2184,-0.2905,-0.2869,-0.2831,-0.2772,-0.2728,-0.268,-0.2651,-0.2608,-0.2565,-0.2502,-0.2458,-0.2415,-0.2355,-0.2292,-0.2241,-0.2223,-0.2203,-0.2218,-0.2193,-0.2165,-0.2159,-0.2153,-0.2159,-0.2215,-0.2215,-0.2227,-0.2227,-0.2227]},{"header":{"parameterUnit":"m.s-1","parameterCategory":1,"la1":30.2991,"la2":30.254,"lo1":-89.0895,"lo2":-89.0444,"dy":0.0017,"dx":0.0017,"nx":28,"ny":28,"refTime":"2026-02-09T03:00:00:Z","depth":0,"parameterNumber":3,"parameterNumberName":"V-component_of_WINDS"},"data":[0,0,0,0,0,0,0,0,0,0,0,0,0,0,0,0,0,0,0,0,0,0,0,0,0,0,0,0,0,0,0,0,0,0,0,0,0,0,0,0,0,0,0,0,0,0,0,0,0,0,0,0,0,0,0,0,0,0,2.7736,2.7736,0,2.7764,2.7764,2.7765,2.7814,2.7815,2.7815,2.7816,2.7839,2.7838,2.7838,0,0,0,0,0,0,0,0,0,0,0,0,0,2.772,2.772,2.7736,2.7736,2.7736,2.7764,2.7764,2.7765,2.7813,2.7815,2.7816,2.7817,2.7839,2.7838,2.7838,0,0,0,0,0,0,0,0,0,0,0,0,0,2.7735,2.772,2.7736,2.7764,2.7767,2.7764,2.7765,2.7765,2.7813,2.7815,2.7816,2.7817,2.7839,2.7838,2.7838,2.7807,0,0,2.7837,2.7836,0,0,0,0,0,0,0,0,2.7734,2.7736,2.776,2.7762,2.7765,2.7787,2.7767,2.7779,2.7813,2.7795,2.7816,2.7818,2.782,2.7821,2.7823,2.7808,2.7809,2.7837,2.7836,2.7836,2.7836,0,0,0,0,0,0,0,2.7733,2.7735,2.7747,2.776,2.7763,2.7774,2.7778,2.777,2.7799,2.7797,2.7801,2.7804,2.7822,2.7823,2.7824,2.781,2.7837,2.7836,2.7836,2.7836,2.7774,2.7773,0,0,0,0,0,0,2.7728,2.7733,2.7746,2.7748,2.7753,2.7773,2.7778,2.7778,2.7799,2.7804,2.7803,2.7806,2.7823,2.7824,2.7825,2.7793,2.7836,2.7836,2.7836,2.7776,2.7774,2.7772,0,0,0,0,0,0,2.7728,2.7729,2.7745,2.7742,2.7745,2.7772,2.7773,2.7778,2.778,2.7804,2.7809,2.7799,2.7825,2.7825,2.7813,2.7794,2.7836,2.7835,2.7777,2.7775,2.7773,2.7726,0,0,0,0,0,0,2.7727,2.7729,2.7718,2.7741,2.7745,2.7733,2.7772,2.7778,2.778,2.7785,2.7802,2.7806,2.7826,2.7813,2.7812,2.7794,2.7835,2.7779,2.7776,2.7774,2.7729,2.7722,2.7717,0,0,0,0,0,2.7727,2.7701,2.7717,2.7718,2.7732,2.7732,2.7733,2.7759,2.7778,2.7768,2.7783,2.7805,2.7796,2.7811,2.7811,2.7792,2.778,2.7777,2.7774,2.7732,2.7724,2.7717,0,0,0,0,0,0,2.7672,2.7705,2.7723,2.7704,2.7715,2.774,2.7727,2.7749,2.7752,2.7756,2.7785,2.7789,2.7772,2.7781,2.7797,2.7765,2.7792,2.7788,2.776,2.7752,2.7746,2.7744,2.7835,0,0,0,0,0,2.7658,2.7657,2.7685,2.7666,2.7671,2.7698,2.7699,2.7718,2.7729,2.7733,2.7748,2.7756,2.7756,2.7755,2.7755,2.7731,2.7736,2.7718,2.7712,2.7707,2.7703,2.7693,2.7686,2.7762,2.7762,2.7762,0,0,2.7629,2.7647,2.7643,2.7656,2.7667,2.7664,2.7701,2.7696,2.7694,2.7732,2.7722,2.7733,2.7744,2.7727,2.7719,2.7733,2.7684,2.7703,2.7698,2.7698,2.769,2.7682,2.7676,2.776,2.776,2.7761,0,0,2.7574,2.7588,2.7575,2.7586,2.7603,2.7622,2.7619,2.7641,2.7651,2.7642,2.7671,2.7668,2.7666,2.7674,2.7678,2.7631,2.7652,2.763,2.7597,2.7587,2.7581,2.7576,2.756,2.7554,2.7626,2.7626,2.7626,0,2.7535,2.7534,2.7565,2.7559,2.7564,2.7602,2.7589,2.7597,2.7612,2.7615,2.7631,2.7631,2.7641,2.7627,2.7616,2.7618,2.7615,2.7628,2.758,2.7575,2.757,2.7556,2.755,2.7624,2.7624,2.7624,2.7625,0,2.7486,2.7484,2.7472,2.749,2.7493,2.7483,2.7512,2.7512,2.7532,2.7548,2.754,2.7554,2.756,2.7558,2.7575,2.7546,2.7555,2.7575,2.7602,2.756,2.7547,2.7542,2.762,2.7621,2.7622,2.7622,0,0,2.7395,2.7433,2.7428,2.7438,2.7461,2.746,2.7453,2.7461,2.7461,2.7471,2.7465,2.7465,2.7485,2.7489,2.7508,2.7499,2.7463,2.7521,2.7521,2.751,2.7435,2.742,2.7413,2.7478,2.7477,2.7476,2.7434,0,2.7346,2.7338,2.7367,2.7351,2.7351,2.7388,2.7382,2.7395,2.7412,2.7413,2.743,2.743,2.7456,2.7459,2.7452,2.7469,2.7448,2.7472,2.7473,2.7472,2.7469,2.7406,2.739,2.7349,2.7429,2.7428,2.7428,0,2.7287,2.7298,2.7282,2.731,2.7311,2.7305,2.7317,2.7318,2.7334,2.7347,2.7354,2.7377,2.7371,2.7399,2.7391,2.7407,2.7409,2.7418,2.7417,2.7418,2.7447,2.7406,2.7337,2.7331,2.742,2.742,2.7421,0,2.7224,2.7234,2.7228,2.7234,2.7266,2.7261,2.7274,2.7292,2.7296,2.7305,2.7309,2.7316,2.732,2.7325,2.735,2.7367,2.7341,2.7369,2.7351,2.735,2.7343,2.7343,2.7274,2.7343,2.7343,2.7343,2.7344,0,2.7166,2.7155,2.72,2.7196,2.7186,2.7219,2.7208,2.7224,2.724,2.7239,2.7271,2.7269,2.7302,2.7304,2.7323,2.7315,2.7316,2.7326,2.7331,2.7324,2.7323,2.7325,2.7329,2.7342,2.7342,2.7343,2.7343,0,2.7093,2.7123,2.7118,2.715,2.7158,2.7149,2.7176,2.7173,2.7193,2.7191,2.7193,2.7223,2.7227,2.7253,2.7261,2.7275,2.726,2.727,2.7255,2.7259,2.724,2.7242,2.717,2.7163,2.7236,2.7235,2.7235,0,2.7054,2.7048,2.708,2.7084,2.7096,2.71,2.7106,2.7139,2.7143,2.7164,2.7158,2.7166,2.7173,2.7178,2.72,2.7207,2.7219,2.7193,2.7219,2.7213,2.722,2.722,2.722,2.7187,2.7186,2.7185,2.7185,0,2.6983,2.6999,2.7007,2.7022,2.7029,2.7041,2.7054,2.7054,2.7092,2.7095,2.7101,2.7108,2.7119,2.7126,2.7139,2.715,2.7173,2.7177,2.7173,2.7165,2.7157,2.7163,2.7241,2.7178,2.7179,2.7179,2.7179,2.718,2.6927,2.6924,2.6948,2.6957,2.6972,2.6985,2.6985,2.7006,2.7013,2.7027,2.7046,2.705,2.7069,2.7088,2.7098,2.7101,2.7115,2.7109,2.7108,2.7106,2.7103,2.7157,2.7103,2.7104,2.7104,2.7104,2.7104,0,2.6858,2.6877,2.6885,2.6905,2.6912,2.6937,2.6955,2.6958,2.6963,2.6979,2.6988,2.6996,2.7004,2.7028,2.7039,2.7037,2.7048,2.7038,2.7039,2.7042,2.7089,2.7092,2.7029,2.7029,2.7029,2.7029,2.7029,2.7029,2.6823,2.6821,2.684,2.6846,2.6864,2.687,2.6878,2.6891,2.6905,2.6914,2.6922,2.6939,2.6959,2.6972,2.698,2.6987,2.6989,2.6976,2.6987,2.7031,2.7038,2.7045,2.7048,2.6977,2.6976,2.6939,2.6939,2.6939]}]]